Regional Weather Roundup
Issued by NWS Wakefield, VA

Home | Current Version | Previous Version | Graphics & Text | Print | Product List | Glossary On
Versions: 1 2 3 4 5 6 7 8 9 10 11 12 13 14 15 16 17 18 19 20 21 22 23 24 25 26 27 28 29 30 31 32 33 34 35 36 37 38 39 40 41 42 43 44 45 46 47 48 49 50
000
ASUS41 KAKQ 271115
RWRAKQ

REGIONAL WEATHER ROUNDUP
NATIONAL WEATHER SERVICE WAKEFIELD VA
700 AM EDT WED MAY 27 2015

Note: "fair" indicates few or no clouds below 12,000 feet with no
significant weather and/or obstructions to visibility. * = Denotes
station may not report precipitation (e.g., rain,snow,etc.),
thunder or fog.

VAZ042-051-052>054-056-271200-
NORTHERN VIRGINIA

CITY           SKY/WX    TMP DP  RH WIND       PRES   REMARKS
WASH NATIONAL  MOSUNNY   75  70  83 S10       30.16R
DULLES         PTSUNNY   72  68  87 S7        30.15R
FORT BELVOIR   PTSUNNY   74  69  84 SE7       30.16R
QUANTICO       PTSUNNY   74  68  81 S13       30.17R
FREDERICKSBRG* MOSUNNY   73  72  96 S5        30.16R
STAFFORD*      PTSUNNY   72  67  85 CALM      30.21R
WARRENTON      MOSUNNY   74  71  91 S6        30.15S
CULPEPER*      CLOUDY    72  68  89 S5        30.16S
MANASSAS*      CLOUDY    73  70  88 S7          N/A
LEESBURG*      CLOUDY    72  70  94 SW3       30.16R
WINCHESTER     PTSUNNY   70  64  83 SW5       30.15R
FRONT ROYAL*   FAIR      64  64 100 CALM      30.14R
LURAY*         FAIR      70  70 100 CALM      30.15R
$$

VAZ048-049-060>072-079>083-271200-
CENTRAL AND SOUTH CENTRAL VIRGINIA

CITY           SKY/WX    TMP DP  RH WIND       PRES   REMARKS
RICHMOND       PTSUNNY   73  68  84 S9        30.20R
CHESTERFIELD*  NOT AVBL
PETERSBURG*    MOSUNNY   72  72 100 S3        30.21R
HANOVER        PTSUNNY   73  68  84 S9        30.20R
TAPPAHANNOCK*  PTSUNNY   72  66  80 S7        30.20R
QUINTON*       CLOUDY    71  68  90 S6        30.20R
CHARLOTTSVILLE MOSUNNY   71  68  90 S9        30.16R
GORDONSVILLE*  CLOUDY    71  68  92 S9        30.16R
ORANGE*        CLOUDY    72  68  88 S7        30.18R
LOUISA*        PTSUNNY   72  68  88 S5        30.16S
BUMPASS*       CLOUDY    70  68  93 MISG      30.17S
FARMVILLE*     SUNNY     71  71  98 S6        30.17R
CREWE*         FAIR      70  68  94 S6        30.19S
FORT PICKETT*  FAIR      70  70 100 S9        30.20R
CHASE CITY*    FAIR      71  71  99 SE5       30.20S
CLARKSVILLE*   FAIR      68  68 100 S3        30.20R
SOUTH HILL*    PTSUNNY   69  67  95 S3        30.27R
LAWRENCEVILLE* FAIR      72  70  94 S5        30.21R
EMPORIA*       CLOUDY    70  68  94 SE6       30.23R
$$

VAZ088>098-271200-
SOUTHEAST VIRGINIA

CITY           SKY/WX    TMP DP  RH WIND       PRES   REMARKS
NORFOLK        MOSUNNY   73  66  78 S15       30.22R
VIRGINIA BEACH PTSUNNY   74  66  76 S12       30.22S
NORFOLK NAVAL  PTSUNNY   77  66  68 S9        30.23S
WEST POINT*    CLOUDY    74  68  80 S8        30.22R
SALUDA*        CLOUDY    72  68  87 S9        30.20S
NEWPORT NEWS   MOSUNNY   76  67  73 S10       30.21S
LANGLEY AFB    MOSUNNY   72  67  86 S12       30.20S
FORT EUSTIS    PTSUNNY   73  73 100 S8        30.20R
WILLIAMSBURG*  MOSUNNY   73  70  88 S8        30.23R
HR EXEC AP*    FAIR      70  64  83 S9        30.25S
FRANKLIN*      SUNNY     70  67  90 S8        30.23R
WAKEFIELD      CLOUDY    72  68  87 S6        30.22R
$$

VAZ020-022-025-037-045-271200-
WEST CENTRAL AND SOUTHWEST VIRGINIA

CITY           SKY/WX    TMP DP  RH WIND       PRES   REMARKS
STAUNTON*      MOSUNNY   63  62  95 CALM      30.19R FOG
WAYNESBORO*    FAIR      65  64  97 CALM      30.18R
HOT SPRINGS VA MOCLDY    64  61  91 SW9       30.27R
LYNCHBURG      SUNNY     68  66  93 S9        30.20R
DANVILLE       CLEAR     67  64  90 SW5       30.22R
SOUTH BOSTON*  FAIR      69  64  84 SW3       30.21R
MARTINSVILLE   CLEAR     66  66 100 CALM      30.25R
ROANOKE        PTCLDY    68  63  84 W3        30.22R
BLACKSBURG     MOCLDY    65  62  90 CALM      30.28R
DUBLIN*        MOCLDY    65  65 100 CALM      30.26R
MARION*        PTCLDY    63  61  93 W5        30.29R
HILLSVILLE*    CLOUDY    61  60  97 CALM      30.27R
RICHLANDS*     FAIR      64  61  88 SW6       30.27R
WISE*          PTCLDY    63  61  94 SW10      30.28R
ABINGDON*      CLOUDY    66  65  97 CALM      30.26R
$$

MDZ021>025-VAZ099-100-271200-
SOUTHERN MARYLAND AND THE DELMARVA PENINSULA

CITY           SKY/WX    TMP DP  RH WIND       PRES   REMARKS
PATUXENT RIVER PTSUNNY   72  67  84 S9        30.18R
BAY BRIDGE APT   N/A    N/A N/A N/A S8        30.17R
LEONARDTOWN    MOSUNNY   72  64  78 S8        30.20R
DOVER          MOSUNNY   72  72 100 S9        30.15R
GEORGETOWN     MOSUNNY   72  68  87 S9        30.20S
EASTON         MOSUNNY   72  72 100 S7        30.22R
CAMBRIDGE      PTSUNNY   72  68  88 S8        30.19R
SALISBURY      MOSUNNY   71  67  87 S9        30.20S
OCEAN CITY     SUNNY     66  63  90 VRB6      30.22R
WALLOPS ISLAND MOSUNNY   67  66  97 S14       30.23R
ACCOMACK*      SUNNY     70  68  94 S10       30.22R
$$

NCZ012>017-030>032-271200-
NORTH CENTRAL AND EASTERN NORTH CAROLINA

CITY           SKY/WX    TMP DP  RH WIND       PRES   REMARKS
ROANOKE RAPIDS FAIR      70  68  94 S6        30.22R
RALEIGH        MOCLDY    71  68  90 S3        30.22R
ELIZABETH CITY PTSUNNY   72  66  81 S10       30.25R
AHOSKIE*       PTSUNNY   70  67  92 S6        30.24R
EDENTON*       CLOUDY    72  67  85 S8        30.25R
CURRITUCK*     PTSUNNY   73  64  75 S3        30.25S
KILL DEVIL HLS PTSUNNY   73  65  77 S7        30.25S
MANTEO         PTSUNNY   73  66  79 S13       30.27R
CAPE HATTERAS  PTSUNNY   73  62  68 S9        30.29R
TARBORO*       FAIR      71  68  91 CALM      30.24S
GOLDSBORO      CLOUDY    72  70  94 CALM      30.22R
WASHINGTON     MOSUNNY   71  67  89 S5        30.25S
GREENVILLE     CLOUDY    72  70  94 S8        30.25S
NEW BERN       PTSUNNY   72  67  84 SE6       30.26S
WILMINGTON     MOSUNNY   73  69  87 SE3       30.24R
$$

VAZ048-271200-
ELSEWHERE

CITY           SKY/WX    TMP DP  RH WIND       PRES   REMARKS
HARRISBURG PA  PTSUNNY   73  66  78 SE5       30.13R
BALTIMORE      PTSUNNY   73  68  83 S6        30.15R
ANNAPOLIS      CLOUDY    72  67  84 S7        30.17R
ANDREWS AFB    CLOUDY    73  69  90 S10       30.16R
PHILADELPHIA   CLOUDY    73  67  81 S9        30.17S
HENDERSON NC   MOSUNNY   69  66  91 S7        30.22S
GREENSBORO     MOCLDY    66  65  96 S6        30.23R
ROCKY MOUNT    PTSUNNY   72  70  93 S7        30.23S
$$

VAZ100-271200-
MARINE

STATION/POSITION TIME  TEMP    WIND        PRES    WAVE   SWELL
                       AIR SEA DIR/SP/G            HT/PER HT/PER
                 (UTC) (F)     (DEG/KT/KT) (MB)    (FT/S) (FT/S)
BRANDYWINE LGT   1000   68 65  200/ 13/ 14 1022.3R
CAPE MAY NJ      1000   65 69  150/  5/  9 1022.2R
LEWES DE         1000   71 63  210/  6/ 13 1022.1R
15NM E FENWICK I 1050   65 61              1022.9S   3/ 6
OCEAN-CITY-INLET 1000   62 66  210/ 10/ 12 1022.8R
WACHAPREAGUE VA  1000   69 72  210/  9/ 11 1023.2R
THOMAS POINT MD  1100   70 68  180/ 14/ 15 1022.1R
GOOSES REEF MD   1100   71 68  190/ 10/ 10 1022.8R   1/ 2
COVE POINT MD    1000   69     170/ 11/ 12 1022.4R
SOLOMONS ISLAND  1000      70                N/A
BISHOPS HEAD MD  1000   71 73  180/ 13/ 16 1021.7R
PINEY POINT MD   1000          210/  9/ 10   N/A
CAMBRIDGE MD     1000   71 71  180/  5/  7 1021.6R
LEWISETTA VA     1000   72 73              1021.6R
RAPPAHANNOCK LGT 1000          170/ 15/ 17 1023.2R
STINGRAY PT      1100   72 70  190/  8/ 12 1022.5R   1/ 2
YORK RVR RNG VA  1000   72     210/ 13/ 15 1022.1R
YORKTOWN VA      1000   72 71  210/ 10/ 14 1022.2R
JAMESTOWN VA     1100   71 74  200/  8/ 12 1022.1R
DOMINION TERM VA 1000   71     190/ 12/ 14 1023.0R
KIPTOPEKE VA     1000      74  170/  9/ 10   N/A
CHES BAY BRIDGE  1000   72 64  170/ 11/ 15 1022.7R
CAPE HENRY VA    1000   71     180/  8/ 13 1022.1R
CHESAPEAKE LGHT  1000   67     180/ 20/ 21 1023.9R
WILLOUBY STN VA  1000   72     190/ 15/ 19 1023.6R
CAPE HENRY BUOY  1028      62                N/A     3/ 6
1ST LANDING BUOY 1100      68              1023.0R
CAPE CHARLES BUO 1026      65                N/A     2/ 6   2/13
OFFSHORE WE BUOY 1011      65                N/A     3/ 5   2/ 7
64NM E OF VA BCH 1050   66 62  170/ 10/ 12 1024.6S   3/ 6   2/ 6
DUCK PIER NC     1000   72 56  190/ 14/ 16 1023.4R
44100 DUCK FRF   1024      63                N/A     3/ 5
44056 DUCK FRF   1011      61                N/A     2/ 5
OREGON INLET NC  1000   73 76  190/ 12/ 14 1024.8R
HATTERAS NC      1000   73 75  180/  6/  9 1024.6R
DIAMOND SHLS NC  1050   75 76  200/  8/ 12 1025.6R   3/ 7   2/ 7
CAPE LOOKOUT NC  1100   73     200/  4/  5 1024.7R
$$



USA.gov is the U.S. government's official web portal to all federal, state and local government web resources and services.